| time (UTC) | temp F | wind direction | speed MPH | gust MPH | rain 1hr in | rain 24hr in | rain mn in | humidity % | barometer mb |
| 20260905222313 | 87 | 341 | 0.0 | 2.0 | 0.00 | 0.08 | 0.01 | 70 | 1010.8 |
| 20260905221834 | 86 | 341 | 0.0 | 3.0 | 0.00 | 0.08 | 0.01 | 71 | 1010.8 |
| 20260905221313 | 86 | 341 | 1.0 | 3.0 | 0.00 | 0.08 | 0.01 | 69 | 1010.8 |
| 20260905220813 | 86 | 341 | 0.0 | 1.0 | 0.00 | 0.08 | 0.01 | 69 | 1010.7 |
| 20260905220341 | 87 | 341 | 0.0 | 1.0 | 0.00 | 0.08 | 0.01 | 67 | 1010.8 |
| 20260905215820 | 88 | 341 | 0.0 | 1.0 | 0.00 | 0.08 | 0.01 | 66 | 1010.8 |
| 20260905215323 | 88 | 341 | 0.0 | 1.0 | 0.00 | 0.08 | 0.01 | 66 | 1010.8 |
| 20260905214820 | 88 | 341 | 0.0 | 1.0 | 0.00 | 0.08 | 0.01 | 67 | 1010.8 |
| 20260905214316 | 88 | 341 | 0.0 | 1.0 | 0.00 | 0.08 | 0.01 | 68 | 1010.9 |
| 20260905213834 | 88 | 341 | 0.0 | 1.0 | 0.00 | 0.08 | 0.01 | 68 | 1010.8 |
| 20260905213328 | 88 | 341 | 0.0 | 2.0 | 0.00 | 0.09 | 0.01 | 67 | 1010.8 |
| 20260905212829 | 89 | 341 | 0.0 | 2.0 | 0.00 | 0.09 | 0.01 | 66 | 1010.8 |
| 20260905212356 | 90 | 341 | 0.0 | 5.0 | 0.00 | 0.09 | 0.01 | 65 | 1010.9 |
| 20260905211835 | 90 | 341 | 1.0 | 6.0 | 0.00 | 0.09 | 0.01 | 64 | 1010.8 |
| 20260905211335 | 90 | 341 | 2.0 | 6.0 | 0.00 | 0.09 | 0.01 | 63 | 1010.8 |
| 20260905210813 | 91 | 341 | 1.0 | 6.0 | 0.00 | 0.09 | 0.01 | 63 | 1010.5 |
| 20260905210338 | 92 | 341 | 1.0 | 3.0 | 0.00 | 0.09 | 0.01 | 60 | 1010.6 |
| 20260905205814 | 92 | 341 | 0.0 | 2.0 | 0.00 | 0.09 | 0.01 | 62 | 1010.6 |
| 20260905205313 | 91 | 341 | 0.0 | 1.0 | 0.00 | 0.09 | 0.01 | 62 | 1010.5 |
| 20260905204834 | 91 | 341 | 0.0 | 1.0 | 0.00 | 0.09 | 0.01 | 61 | 1010.6 |
| 20260905204313 | 91 | 341 | 0.0 | 1.0 | 0.00 | 0.09 | 0.01 | 62 | 1010.6 |
| 20260905203814 | 90 | 341 | 0.0 | 1.0 | 0.00 | 0.09 | 0.01 | 62 | 1010.7 |
| 20260905203339 | 89 | 341 | 0.0 | 1.0 | 0.00 | 0.09 | 0.01 | 67 | 1010.7 |
| 20260905202816 | 88 | 341 | 0.0 | 1.0 | 0.00 | 0.09 | 0.01 | 65 | 1010.7 |
| 20260905202316 | 87 | 341 | 0.0 | 5.0 | 0.00 | 0.09 | 0.01 | 66 | 1010.9 |
| 20260905201821 | 87 | 341 | 1.0 | 6.0 | 0.00 | 0.09 | 0.01 | 65 | 1010.9 |
| 20260905201321 | 87 | 341 | 2.0 | 6.0 | 0.00 | 0.09 | 0.01 | 65 | 1011.0 |
| 20260905200821 | 87 | 341 | 0.0 | 4.0 | 0.00 | 0.09 | 0.01 | 69 | 1010.9 |
| 20260905200318 | 87 | 341 | 1.0 | 4.0 | 0.00 | 0.09 | 0.01 | 67 | 1011.0 |
| 20260905195813 | 87 | 341 | 1.0 | 3.0 | 0.00 | 0.09 | 0.01 | 68 | 1010.7 |
| 20260905195317 | 87 | 341 | 0.0 | 1.0 | 0.00 | 0.09 | 0.01 | 68 | 1010.9 |
| 20260905194817 | 86 | 341 | 0.0 | 4.0 | 0.00 | 0.09 | 0.01 | 67 | 1010.9 |
| 20260905194316 | 86 | 341 | 1.0 | 7.0 | 0.00 | 0.09 | 0.01 | 67 | 1011.0 |
| 20260905193815 | 86 | 341 | 2.0 | 7.0 | 0.00 | 0.09 | 0.01 | 66 | 1011.1 |
| 20260905193312 | 86 | 341 | 1.0 | 2.0 | 0.00 | 0.09 | 0.01 | 68 | 1011.1 |
| 20260905192817 | 86 | 341 | 0.0 | 3.0 | 0.00 | 0.09 | 0.01 | 69 | 1011.0 |
| 20260905192315 | 86 | 341 | 1.0 | 3.0 | 0.00 | 0.09 | 0.01 | 68 | 1011.0 |
| 20260905191819 | 86 | 341 | 0.0 | 3.0 | 0.00 | 0.09 | 0.01 | 71 | 1011.1 |
| 20260905191317 | 85 | 341 | 0.0 | 3.0 | 0.00 | 0.09 | 0.01 | 72 | 1011.0 |
| 20260905190813 | 85 | 341 | 0.0 | 3.0 | 0.00 | 0.09 | 0.01 | 72 | 1011.2 |
| 20260905190317 | 86 | 341 | 1.0 | 3.0 | 0.00 | 0.09 | 0.01 | 70 | 1011.1 |
| 20260905185818 | 87 | 341 | 1.0 | 3.0 | 0.00 | 0.09 | 0.01 | 68 | 1011.2 |
| 20260905185321 | 87 | 341 | 1.0 | 4.0 | 0.00 | 0.09 | 0.01 | 69 | 1011.1 |
| 20260905184820 | 87 | 341 | 1.0 | 4.0 | 0.00 | 0.09 | 0.01 | 68 | 1011.2 |
| 20260905184346 | 86 | 341 | 0.0 | 4.0 | 0.00 | 0.09 | 0.01 | 70 | 1011.2 |
| 20260905183819 | 86 | 341 | 0.0 | 2.0 | 0.00 | 0.09 | 0.01 | 70 | 1011.2 |
| 20260905183318 | 86 | 341 | 1.0 | 2.0 | 0.00 | 0.09 | 0.01 | 67 | 1011.2 |
| 20260905182820 | 87 | 341 | 0.0 | 4.0 | 0.00 | 0.09 | 0.01 | 66 | 1011.1 |
| 20260905182315 | 87 | 341 | 1.0 | 4.0 | 0.00 | 0.09 | 0.01 | 65 | 1011.0 |
| 20260905181839 | 87 | 341 | 0.0 | 4.0 | 0.00 | 0.09 | 0.01 | 67 | 1011.2 |
| 20260905181337 | 87 | 341 | 1.0 | 4.0 | 0.00 | 0.09 | 0.01 | 66 | 1011.2 |
| 20260905180836 | 87 | 341 | 0.0 | 5.0 | 0.00 | 0.09 | 0.01 | 67 | 1011.4 |
| 20260905180317 | 87 | 341 | 0.0 | 5.0 | 0.00 | 0.09 | 0.01 | 67 | 1011.7 |
| 20260905175817 | 87 | 341 | 0.0 | 3.0 | 0.00 | 0.09 | 0.01 | 69 | 1011.7 |
| 20260905175315 | 86 | 341 | 0.0 | 3.0 | 0.00 | 0.09 | 0.01 | 69 | 1012.0 |
| 20260905174814 | 85 | 341 | 1.0 | 3.0 | 0.00 | 0.09 | 0.01 | 69 | 1012.2 |
| 20260905174314 | 85 | 341 | 0.0 | 3.0 | 0.00 | 0.09 | 0.01 | 72 | 1012.3 |
| 20260905173814 | 84 | 341 | 0.0 | 5.0 | 0.00 | 0.09 | 0.01 | 74 | 1012.4 |
| 20260905173313 | 84 | 341 | 1.0 | 5.0 | 0.00 | 0.09 | 0.01 | 73 | 1012.4 |
| 20260905172836 | 84 | 341 | 1.0 | 4.0 | 0.00 | 0.09 | 0.01 | 74 | 1012.5 |
| 20260905172334 | 84 | 341 | 1.0 | 4.0 | 0.00 | 0.09 | 0.01 | 74 | 1012.4 |
| 20260905171833 | 84 | 341 | 0.0 | 3.0 | 0.00 | 0.09 | 0.01 | 75 | 1012.4 |
| 20260905171335 | 84 | 341 | 0.0 | 2.0 | 0.00 | 0.09 | 0.01 | 76 | 1012.5 |
| 20260905170834 | 84 | 341 | 0.0 | 7.0 | 0.00 | 0.09 | 0.01 | 74 | 1012.5 |
| 20260905170313 | 85 | 341 | 2.0 | 10.0 | 0.00 | 0.09 | 0.01 | 74 | 1012.4 |
| 20260905165813 | 86 | 341 | 2.0 | 6.0 | 0.00 | 0.09 | 0.01 | 73 | 1012.4 |
| 20260905165331 | 86 | 341 | 1.0 | 6.0 | 0.00 | 0.09 | 0.01 | 72 | 1012.3 |
| 20260905164827 | 87 | 341 | 2.0 | 6.0 | 0.00 | 0.09 | 0.01 | 71 | 1012.3 |
| 20260905164325 | 87 | 341 | 1.0 | 4.0 | 0.00 | 0.09 | 0.01 | 71 | 1012.3 |
| 20260905163851 | 87 | 341 | 2.0 | 6.0 | 0.00 | 0.09 | 0.01 | 71 | 1012.4 |
| 20260905163356 | 87 | 341 | 1.0 | 6.0 | 0.00 | 0.09 | 0.01 | 69 | 1012.4 |
| 20260905162834 | 88 | 341 | 2.0 | 7.0 | 0.00 | 0.09 | 0.01 | 69 | 1012.3 |
| 20260905162313 | 88 | 341 | 2.0 | 7.0 | 0.00 | 0.09 | 0.01 | 69 | 1012.6 |
| 20260905161812 | 88 | 341 | 0.0 | 5.0 | 0.00 | 0.09 | 0.01 | 69 | 1012.5 |
| 20260905161337 | 88 | 341 | 1.0 | 2.0 | 0.00 | 0.09 | 0.01 | 67 | 1012.5 |
| 20260905160836 | 88 | 341 | 0.0 | 4.0 | 0.00 | 0.09 | 0.01 | 67 | 1012.5 |
| 20260905160336 | 88 | 341 | 1.0 | 3.0 | 0.00 | 0.09 | 0.01 | 67 | 1012.7 |
| 20260905155814 | 88 | 341 | 0.0 | 2.0 | 0.00 | 0.09 | 0.01 | 67 | 1012.8 |
| 20260905155340 | 88 | 341 | 0.0 | 2.0 | 0.00 | 0.09 | 0.01 | 65 | 1012.8 |
| 20260905154818 | 88 | 341 | 0.0 | 3.0 | 0.00 | 0.09 | 0.01 | 63 | 1012.9 |
| 20260905154317 | 89 | 341 | 1.0 | 3.0 | 0.00 | 0.09 | 0.01 | 64 | 1013.0 |
| 20260905153816 | 90 | 341 | 0.0 | 2.0 | 0.00 | 0.09 | 0.01 | 64 | 1012.6 |
| 20260905153315 | 90 | 341 | 1.0 | 2.0 | 0.00 | 0.09 | 0.01 | 64 | 1012.3 |
| 20260905152816 | 90 | 341 | 0.0 | 5.0 | 0.00 | 0.09 | 0.01 | 65 | 1012.3 |
| 20260905152315 | 90 | 341 | 1.0 | 5.0 | 0.00 | 0.09 | 0.01 | 63 | 1012.2 |
| 20260905151813 | 90 | 341 | 0.0 | 2.0 | 0.00 | 0.09 | 0.01 | 64 | 1012.3 |
| 20260905151312 | 89 | 341 | 0.0 | 2.0 | 0.00 | 0.09 | 0.01 | 68 | 1012.3 |
| 20260905150834 | 88 | 341 | 1.0 | 2.0 | 0.00 | 0.09 | 0.01 | 66 | 1012.5 |
| 20260905150334 | 88 | 341 | 0.0 | 2.0 | 0.00 | 0.09 | 0.01 | 67 | 1012.5 |
| 20260905145831 | 87 | 341 | 0.0 | 3.0 | 0.00 | 0.09 | 0.01 | 67 | 1012.5 |
| 20260905145357 | 86 | 341 | 1.0 | 3.0 | 0.00 | 0.09 | 0.01 | 68 | 1012.5 |
| 20260905144835 | 86 | 341 | 1.0 | 3.0 | 0.00 | 0.09 | 0.01 | 68 | 1012.6 |
| 20260905144315 | 85 | 341 | 0.0 | 2.0 | 0.00 | 0.09 | 0.01 | 70 | 1012.3 |
| 20260905143842 | 85 | 341 | 0.0 | 2.0 | 0.00 | 0.09 | 0.01 | 71 | 1012.4 |
| 20260905143321 | 84 | 341 | 1.0 | 2.0 | 0.00 | 0.09 | 0.01 | 74 | 1012.4 |
| 20260905142820 | 84 | 341 | 1.0 | 3.0 | 0.00 | 0.09 | 0.01 | 74 | 1012.4 |
| 20260905142319 | 83 | 341 | 1.0 | 3.0 | 0.00 | 0.09 | 0.01 | 75 | 1012.3 |
| 20260905141814 | 83 | 341 | 0.0 | 3.0 | 0.00 | 0.09 | 0.01 | 77 | 1012.3 |
| 20260905141315 | 82 | 341 | 1.0 | 3.0 | 0.00 | 0.09 | 0.01 | 78 | 1012.4 |
| 20260905140814 | 82 | 341 | 1.0 | 3.0 | 0.00 | 0.09 | 0.01 | 80 | 1012.2 |
| 20260905140313 | 81 | 341 | 1.0 | 3.0 | 0.00 | 0.09 | 0.01 | 80 | 1012.1 |
| 20260905135842 | 81 | 341 | 0.0 | 2.0 | 0.00 | 0.09 | 0.01 | 80 | 1012.2 |
| 20260905135320 | 81 | 341 | 0.0 | 3.0 | 0.00 | 0.09 | 0.01 | 82 | 1012.0 |
| 20260905134819 | 80 | 341 | 1.0 | 3.0 | 0.00 | 0.09 | 0.01 | 83 | 1011.9 |
| 20260905134318 | 79 | 341 | 1.0 | 3.0 | 0.00 | 0.09 | 0.01 | 84 | 1011.7 |
| 20260905133845 | 79 | 341 | 0.0 | 1.0 | 0.00 | 0.09 | 0.01 | 85 | 1011.7 |
| 20260905133323 | 79 | 341 | 0.0 | 1.0 | 0.00 | 0.09 | 0.01 | 85 | 1011.6 |
| 20260905132822 | 78 | 341 | 0.0 | 1.0 | 0.00 | 0.09 | 0.01 | 86 | 1011.7 |
| 20260905132344 | 78 | 341 | 0.0 | 3.0 | 0.00 | 0.09 | 0.01 | 86 | 1011.7 |
| 20260905131822 | 77 | 341 | 0.0 | 5.0 | 0.00 | 0.09 | 0.01 | 87 | 1011.8 |
| 20260905131321 | 77 | 341 | 1.0 | 5.0 | 0.00 | 0.09 | 0.01 | 87 | 1011.7 |
| 20260905130822 | 77 | 341 | 0.0 | 2.0 | 0.00 | 0.09 | 0.01 | 88 | 1011.7 |
| 20260905130322 | 76 | 341 | 0.0 | 2.0 | 0.00 | 0.09 | 0.01 | 87 | 1011.6 |
| 20260905125822 | 76 | 341 | 0.0 | 3.0 | 0.00 | 0.09 | 0.01 | 88 | 1011.6 |
| 20260905125348 | 76 | 341 | 0.0 | 2.0 | 0.00 | 0.09 | 0.01 | 88 | 1011.6 |
| 20260905124828 | 76 | 341 | 0.0 | 1.0 | 0.00 | 0.09 | 0.01 | 88 | 1011.5 |
| 20260905124327 | 76 | 341 | 0.0 | 3.0 | 0.00 | 0.09 | 0.01 | 88 | 1011.6 |
| 20260905123828 | 76 | 341 | 1.0 | 3.0 | 0.00 | 0.09 | 0.01 | 88 | 1011.7 |
| 20260905123326 | 75 | 341 | 0.0 | 3.0 | 0.00 | 0.09 | 0.01 | 89 | 1011.8 |
| 20260905122828 | 75 | 341 | 0.0 | 6.0 | 0.00 | 0.09 | 0.01 | 88 | 1011.8 |
| 20260905122327 | 75 | 341 | 1.0 | 6.0 | 0.00 | 0.09 | 0.01 | 89 | 1011.7 |
| 20260905121827 | 75 | 341 | 1.0 | 3.0 | 0.00 | 0.09 | 0.01 | 89 | 1011.7 |
| 20260905121328 | 74 | 341 | 0.0 | 4.0 | 0.00 | 0.09 | 0.01 | 89 | 1011.5 |
| 20260905120826 | 74 | 341 | 0.0 | 2.0 | 0.00 | 0.09 | 0.01 | 90 | 1011.7 |
| 20260905120325 | 74 | 341 | 1.0 | 2.0 | 0.00 | 0.09 | 0.01 | 91 | 1011.6 |
| 20260905115823 | 73 | 341 | 0.0 | 1.0 | 0.00 | 0.09 | 0.01 | 92 | 1011.6 |
| 20260905115322 | 73 | 341 | 0.0 | 2.0 | 0.00 | 0.09 | 0.01 | 92 | 1011.4 |
| 20260905114821 | 73 | 341 | 0.0 | 2.0 | 0.00 | 0.09 | 0.01 | 91 | 1011.4 |
| 20260905114321 | 73 | 341 | 0.0 | 1.0 | 0.00 | 0.09 | 0.01 | 92 | 1011.3 |
| 20260905113821 | 73 | 341 | 0.0 | 3.0 | 0.00 | 0.09 | 0.01 | 92 | 1011.3 |
| 20260905113345 | 72 | 341 | 1.0 | 3.0 | 0.00 | 0.09 | 0.01 | 92 | 1011.2 |
| 20260905112825 | 72 | 341 | 0.0 | 1.0 | 0.00 | 0.09 | 0.01 | 93 | 1011.3 |
| 20260905112325 | 72 | 341 | 0.0 | 2.0 | 0.00 | 0.09 | 0.01 | 93 | 1011.3 |
| 20260905111831 | 72 | 341 | 1.0 | 2.0 | 0.00 | 0.09 | 0.01 | 93 | 1011.2 |
| 20260905111334 | 72 | 341 | 0.0 | 1.0 | 0.00 | 0.09 | 0.01 | 93 | 1011.2 |
| 20260905110833 | 72 | 341 | 0.0 | 1.0 | 0.00 | 0.09 | 0.01 | 93 | 1011.3 |
| 20260905110333 | 72 | 341 | 0.0 | 1.0 | 0.00 | 0.09 | 0.01 | 93 | 1011.4 |
| 20260905105834 | 72 | 341 | 0.0 | 1.0 | 0.00 | 0.09 | 0.01 | 93 | 1011.2 |
| 20260905105334 | 72 | 341 | 0.0 | 1.0 | 0.00 | 0.09 | 0.01 | 93 | 1011.2 |
| 20260905104833 | 72 | 341 | 0.0 | 2.0 | 0.00 | 0.09 | 0.01 | 93 | 1011.2 |
| 20260905104333 | 72 | 341 | 1.0 | 2.0 | 0.00 | 0.09 | 0.01 | 93 | 1011.2 |
| 20260905103835 | 72 | 341 | 0.0 | 2.0 | 0.00 | 0.09 | 0.01 | 93 | 1011.2 |
| 20260905103335 | 72 | 341 | 1.0 | 3.0 | 0.00 | 0.09 | 0.01 | 93 | 1011.2 |
| 20260905102835 | 72 | 341 | 0.0 | 3.0 | 0.00 | 0.09 | 0.01 | 93 | 1011.1 |
| 20260905102336 | 72 | 341 | 1.0 | 4.0 | 0.00 | 0.09 | 0.01 | 93 | 1011.2 |
| 20260905101837 | 72 | 341 | 1.0 | 4.0 | 0.00 | 0.09 | 0.01 | 93 | 1011.2 |
| 20260905101334 | 72 | 341 | 1.0 | 4.0 | 0.00 | 0.09 | 0.01 | 93 | 1011.2 |
| 20260905100834 | 72 | 341 | 0.0 | 4.0 | 0.00 | 0.09 | 0.01 | 93 | 1011.1 |
| 20260905100334 | 72 | 341 | 1.0 | 4.0 | 0.01 | 0.09 | 0.01 | 93 | 1011.1 |
| 20260905095832 | 72 | 341 | 0.0 | 3.0 | 0.01 | 0.09 | 0.01 | 93 | 1011.1 |
| 20260905095330 | 72 | 341 | 1.0 | 3.0 | 0.01 | 0.09 | 0.01 | 94 | 1011.0 |
| 20260905094837 | 72 | 341 | 1.0 | 2.0 | 0.01 | 0.09 | 0.01 | 94 | 1011.0 |
| 20260905094332 | 72 | 341 | 0.0 | 1.0 | 0.01 | 0.09 | 0.01 | 94 | 1010.9 |
| 20260905093831 | 72 | 341 | 0.0 | 1.0 | 0.01 | 0.09 | 0.01 | 94 | 1010.9 |
| 20260905093333 | 72 | 341 | 0.0 | 1.0 | 0.01 | 0.09 | 0.01 | 94 | 1011.0 |
| 20260905092834 | 71 | 341 | 0.0 | 2.0 | 0.01 | 0.09 | 0.01 | 95 | 1010.9 |
| 20260905092334 | 71 | 341 | 0.0 | 2.0 | 0.01 | 0.09 | 0.01 | 95 | 1011.0 |
| 20260905091835 | 71 | 341 | 1.0 | 1.0 | 0.01 | 0.09 | 0.01 | 96 | 1011.1 |
| 20260905091334 | 71 | 341 | 0.0 | 2.0 | 0.01 | 0.09 | 0.01 | 96 | 1011.1 |
| 20260905090833 | 71 | 341 | 0.0 | 2.0 | 0.01 | 0.09 | 0.01 | 96 | 1011.1 |
| 20260905090331 | 71 | 341 | 0.0 | 1.0 | 0.00 | 0.08 | 0.00 | 96 | 1011.1 |
| 20260905085829 | 71 | 341 | 0.0 | 1.0 | 0.00 | 0.08 | 0.00 | 96 | 1011.2 |
| 20260905085328 | 71 | 341 | 0.0 | 1.0 | 0.00 | 0.08 | 0.00 | 96 | 1011.3 |
| 20260905084828 | 71 | 341 | 0.0 | 1.0 | 0.00 | 0.08 | 0.00 | 96 | 1011.4 |
| 20260905084327 | 71 | 341 | 0.0 | 0.0 | 0.00 | 0.08 | 0.00 | 96 | 1011.5 |
| 20260905083824 | 71 | 341 | 0.0 | 0.0 | 0.00 | 0.08 | 0.00 | 96 | 1011.4 |
| 20260905083322 | 71 | 341 | 0.0 | 0.0 | 0.00 | 0.08 | 0.00 | 95 | 1011.4 |
| 20260905082823 | 71 | 341 | 0.0 | 0.0 | 0.00 | 0.08 | 0.00 | 95 | 1011.3 |
| 20260905082351 | 71 | 341 | 0.0 | 0.0 | 0.00 | 0.08 | 0.00 | 95 | 1011.4 |
| 20260905081830 | 71 | 341 | 0.0 | 1.0 | 0.00 | 0.08 | 0.00 | 95 | 1011.3 |
| 20260905081355 | 71 | 341 | 0.0 | 3.0 | 0.00 | 0.08 | 0.00 | 95 | 1011.5 |
| 20260905080834 | 71 | 341 | 0.0 | 3.0 | 0.00 | 0.08 | 0.00 | 95 | 1011.5 |
| 20260905080331 | 71 | 341 | 1.0 | 2.0 | 0.00 | 0.08 | 0.00 | 95 | 1011.6 |
| 20260905075830 | 71 | 341 | 0.0 | 3.0 | 0.00 | 0.08 | 0.00 | 95 | 1011.7 |
| 20260905075330 | 71 | 341 | 1.0 | 4.0 | 0.00 | 0.08 | 0.00 | 96 | 1011.6 |
| 20260905074827 | 71 | 341 | 1.0 | 4.0 | 0.00 | 0.08 | 0.00 | 96 | 1011.7 |
| 20260905074320 | 71 | 341 | 1.0 | 4.0 | 0.00 | 0.08 | 0.00 | 96 | 1011.8 |
| 20260905073819 | 71 | 341 | 1.0 | 4.0 | 0.00 | 0.08 | 0.00 | 95 | 1011.7 |
| 20260905073316 | 71 | 341 | 0.0 | 2.0 | 0.00 | 0.08 | 0.00 | 95 | 1011.7 |
| 20260905072816 | 71 | 341 | 0.0 | 2.0 | 0.00 | 0.08 | 0.00 | 95 | 1011.6 |
| 20260905072317 | 71 | 341 | 1.0 | 2.0 | 0.00 | 0.08 | 0.00 | 95 | 1011.6 |
| 20260905071843 | 71 | 341 | 0.0 | 1.0 | 0.00 | 0.08 | 0.00 | 95 | 1011.7 |
| 20260905071326 | 71 | 341 | 0.0 | 1.0 | 0.00 | 0.08 | 0.00 | 95 | 1011.7 |
| 20260905070825 | 71 | 341 | 0.0 | 2.0 | 0.00 | 0.08 | 0.00 | 95 | 1011.9 |
| 20260905070325 | 71 | 341 | 0.0 | 2.0 | 0.00 | 0.08 | 0.00 | 95 | 1012.0 |
| 20260905065829 | 71 | 341 | 0.0 | 2.0 | 0.00 | 0.08 | 0.00 | 95 | 1012.2 |
| 20260905065323 | 71 | 341 | 1.0 | 4.0 | 0.00 | 0.08 | 0.00 | 96 | 1012.3 |
| 20260905064824 | 71 | 341 | 1.0 | 4.0 | 0.00 | 0.08 | 0.00 | 96 | 1012.4 |
| 20260905064351 | 71 | 341 | 1.0 | 3.0 | 0.00 | 0.08 | 0.00 | 96 | 1012.4 |
| 20260905063828 | 71 | 341 | 0.0 | 4.0 | 0.00 | 0.08 | 0.00 | 96 | 1012.5 |
| 20260905063328 | 71 | 341 | 1.0 | 4.0 | 0.00 | 0.08 | 0.00 | 96 | 1012.7 |
| 20260905062827 | 71 | 341 | 1.0 | 3.0 | 0.00 | 0.08 | 0.00 | 97 | 1012.6 |
| 20260905062326 | 71 | 341 | 0.0 | 3.0 | 0.00 | 0.08 | 0.00 | 97 | 1012.5 |
| 20260905061824 | 71 | 341 | 0.0 | 2.0 | 0.00 | 0.08 | 0.00 | 96 | 1012.6 |
| 20260905061323 | 71 | 341 | 0.0 | 1.0 | 0.00 | 0.08 | 0.00 | 96 | 1012.6 |
| 20260905060824 | 71 | 341 | 0.0 | 0.0 | 0.00 | 0.08 | 0.00 | 96 | 1012.7 |
| 20260905060323 | 71 | 341 | 0.0 | 0.0 | 0.00 | 0.08 | 0.00 | 96 | 1012.7 |
| 20260905055821 | 71 | 341 | 0.0 | 2.0 | 0.00 | 0.08 | 0.00 | 96 | 1012.9 |
| 20260905055318 | 71 | 341 | 0.0 | 2.0 | 0.00 | 0.08 | 0.00 | 96 | 1012.9 |
| 20260905054818 | 71 | 341 | 0.0 | 1.0 | 0.00 | 0.08 | 0.00 | 96 | 1013.0 |
| 20260905054315 | 71 | 341 | 0.0 | 1.0 | 0.00 | 0.08 | 0.00 | 96 | 1013.1 |
| 20260905053842 | 71 | 341 | 0.0 | 4.0 | 0.00 | 0.08 | 0.00 | 96 | 1013.2 |
| 20260905053318 | 71 | 341 | 0.0 | 4.0 | 0.00 | 0.08 | 0.08 | 96 | 1013.1 |
| 20260905052818 | 71 | 341 | 1.0 | 5.0 | 0.00 | 0.08 | 0.08 | 96 | 1013.3 |
| 20260905052318 | 71 | 341 | 2.0 | 5.0 | 0.00 | 0.08 | 0.08 | 96 | 1013.5 |
| 20260905051816 | 71 | 341 | 1.0 | 3.0 | 0.00 | 0.08 | 0.08 | 96 | 1013.6 |
| 20260905051322 | 71 | 341 | 1.0 | 3.0 | 0.00 | 0.08 | 0.08 | 96 | 1013.6 |
| 20260905050820 | 71 | 341 | 1.0 | 2.0 | 0.00 | 0.08 | 0.08 | 97 | 1013.5 |
| 20260905050318 | 71 | 341 | 0.0 | 2.0 | 0.00 | 0.08 | 0.08 | 97 | 1013.5 |
| 20260905045813 | 71 | 341 | 0.0 | 3.0 | 0.00 | 0.08 | 0.08 | 97 | 1013.8 |
| 20260905045313 | 71 | 341 | 1.0 | 4.0 | 0.00 | 0.08 | 0.08 | 97 | 1013.8 |
| 20260905044813 | 71 | 341 | 1.0 | 4.0 | 0.00 | 0.08 | 0.08 | 97 | 1013.9 |
| 20260905044312 | 71 | 341 | 0.0 | 1.0 | 0.00 | 0.08 | 0.08 | 97 | 1013.9 |
| 20260905043811 | 71 | 341 | 0.0 | 1.0 | 0.00 | 0.08 | 0.08 | 97 | 1014.1 |
| 20260905043357 | 71 | 341 | 0.0 | 1.0 | 0.00 | 0.08 | 0.08 | 97 | 1014.0 |
| 20260905042836 | 71 | 341 | 0.0 | 0.0 | 0.00 | 0.08 | 0.08 | 97 | 1014.0 |
| 20260905042316 | 71 | 341 | 0.0 | 0.0 | 0.00 | 0.08 | 0.08 | 97 | 1014.1 |
| 20260905041813 | 71 | 341 | 0.0 | 0.0 | 0.00 | 0.08 | 0.08 | 97 | 1014.1 |
| 20260905041312 | 71 | 341 | 0.0 | 1.0 | 0.00 | 0.08 | 0.08 | 97 | 1014.2 |
| 20260905040856 | 71 | 341 | 0.0 | 1.0 | 0.00 | 0.08 | 0.08 | 97 | 1014.3 |
| 20260905040337 | 71 | 341 | 0.0 | 0.0 | 0.00 | 0.08 | 0.08 | 97 | 1014.3 |
| 20260905035830 | 70 | 341 | 0.0 | 0.0 | 0.00 | 0.08 | 0.08 | 97 | 1014.2 |
| 20260905035329 | 70 | 341 | 0.0 | 0.0 | 0.00 | 0.08 | 0.08 | 97 | 1014.2 |
| 20260905034828 | 70 | 341 | 0.0 | 0.0 | 0.00 | 0.08 | 0.08 | 96 | 1014.2 |
| 20260905034328 | 71 | 341 | 0.0 | 0.0 | 0.00 | 0.08 | 0.08 | 97 | 1014.3 |
| 20260905033826 | 71 | 341 | 0.0 | 0.0 | 0.00 | 0.08 | 0.08 | 97 | 1014.3 |
| 20260905033325 | 71 | 341 | 0.0 | 0.0 | 0.00 | 0.08 | 0.08 | 97 | 1014.3 |
| 20260905032833 | 71 | 341 | 0.0 | 0.0 | 0.00 | 0.08 | 0.08 | 97 | 1014.2 |
| 20260905032331 | 71 | 341 | 0.0 | 0.0 | 0.00 | 0.08 | 0.08 | 97 | 1014.3 |
| 20260905031829 | 71 | 341 | 0.0 | 0.0 | 0.00 | 0.08 | 0.08 | 96 | 1014.2 |
| 20260905031324 | 71 | 341 | 0.0 | 0.0 | 0.00 | 0.08 | 0.08 | 96 | 1014.3 |
| 20260905030823 | 71 | 341 | 0.0 | 0.0 | 0.00 | 0.08 | 0.08 | 96 | 1014.2 |
| 20260905030323 | 71 | 341 | 0.0 | 0.0 | 0.00 | 0.08 | 0.08 | 96 | 1014.3 |
| 20260905025822 | 71 | 341 | 0.0 | 0.0 | 0.00 | 0.08 | 0.08 | 96 | 1014.4 |
| 20260905025321 | 71 | 341 | 0.0 | 0.0 | 0.00 | 0.08 | 0.08 | 96 | 1014.4 |
| 20260905024821 | 71 | 341 | 0.0 | 0.0 | 0.00 | 0.08 | 0.08 | 96 | 1014.2 |
| 20260905024347 | 71 | 341 | 0.0 | 0.0 | 0.00 | 0.08 | 0.08 | 96 | 1014.3 |
| 20260905023825 | 71 | 341 | 0.0 | 0.0 | 0.00 | 0.08 | 0.08 | 96 | 1014.2 |
| 20260905023342 | 71 | 341 | 0.0 | 0.0 | 0.00 | 0.08 | 0.08 | 96 | 1014.2 |
| 20260905022822 | 72 | 341 | 0.0 | 1.0 | 0.00 | 0.08 | 0.08 | 96 | 1014.4 |
| 20260905022322 | 72 | 341 | 0.0 | 1.0 | 0.00 | 0.08 | 0.08 | 96 | 1014.5 |
| 20260905021818 | 72 | 341 | 0.0 | 1.0 | 0.00 | 0.08 | 0.08 | 96 | 1014.7 |
| 20260905021318 | 72 | 341 | 0.0 | 2.0 | 0.00 | 0.08 | 0.08 | 96 | 1014.7 |
| 20260905020844 | 72 | 341 | 0.0 | 4.0 | 0.00 | 0.08 | 0.08 | 96 | 1014.8 |
| 20260905020324 | 72 | 341 | 1.0 | 4.0 | 0.00 | 0.08 | 0.08 | 96 | 1015.0 |
| 20260905015824 | 72 | 341 | 0.0 | 1.0 | 0.00 | 0.08 | 0.08 | 96 | 1014.9 |
| 20260905015323 | 72 | 341 | 0.0 | 1.0 | 0.00 | 0.08 | 0.08 | 96 | 1015.2 |
| 20260905014823 | 72 | 341 | 0.0 | 1.0 | 0.00 | 0.08 | 0.08 | 96 | 1015.2 |
| 20260905014349 | 72 | 341 | 0.0 | 1.0 | 0.00 | 0.08 | 0.08 | 96 | 1015.1 |
| 20260905013830 | 72 | 341 | 0.0 | 0.0 | 0.00 | 0.08 | 0.08 | 95 | 1015.2 |
| 20260905013331 | 72 | 341 | 0.0 | 0.0 | 0.00 | 0.08 | 0.08 | 95 | 1015.0 |
| 20260905012829 | 72 | 341 | 0.0 | 0.0 | 0.00 | 0.08 | 0.08 | 95 | 1014.8 |
| 20260905012324 | 72 | 341 | 0.0 | 0.0 | 0.00 | 0.08 | 0.08 | 94 | 1014.4 |
| 20260905011827 | 72 | 341 | 0.0 | 1.0 | 0.00 | 0.08 | 0.08 | 94 | 1014.2 |
| 20260905011354 | 73 | 341 | 0.0 | 1.0 | 0.00 | 0.08 | 0.08 | 94 | 1013.9 |
| 20260905010834 | 73 | 341 | 0.0 | 1.0 | 0.00 | 0.08 | 0.08 | 94 | 1013.9 |
| 20260905010335 | 73 | 341 | 0.0 | 1.0 | 0.00 | 0.08 | 0.08 | 94 | 1013.8 |
| 20260905005836 | 73 | 341 | 0.0 | 1.0 | 0.00 | 0.08 | 0.08 | 94 | 1013.6 |
| 20260905005337 | 73 | 341 | 0.0 | 1.0 | 0.00 | 0.08 | 0.08 | 94 | 1013.5 |
| 20260905004817 | 73 | 341 | 0.0 | 1.0 | 0.00 | 0.08 | 0.08 | 93 | 1013.5 |
| 20260905004318 | 73 | 341 | 0.0 | 3.0 | 0.00 | 0.08 | 0.08 | 93 | 1013.3 |
| 20260905003818 | 73 | 341 | 0.0 | 3.0 | 0.00 | 0.08 | 0.08 | 93 | 1013.3 |
| 20260905003319 | 73 | 341 | 0.0 | 1.0 | 0.00 | 0.08 | 0.08 | 93 | 1012.8 |
| 20260905002820 | 74 | 341 | 0.0 | 1.0 | 0.00 | 0.08 | 0.08 | 92 | 1012.3 |
| 20260905002342 | 74 | 341 | 0.0 | 1.0 | 0.00 | 0.08 | 0.08 | 92 | 1011.9 |
| 20260905001819 | 74 | 341 | 0.0 | 2.0 | 0.00 | 0.08 | 0.08 | 91 | 1011.8 |
| 20260905001347 | 74 | 341 | 1.0 | 2.0 | 0.00 | 0.08 | 0.08 | 91 | 1011.3 |
| 20260905000826 | 74 | 341 | 0.0 | 3.0 | 0.00 | 0.08 | 0.08 | 91 | 1011.4 |
| 20260905000325 | 74 | 341 | 1.0 | 3.0 | 0.00 | 0.08 | 0.08 | 91 | 1011.8 |
| 20260904235823 | 75 | 341 | 0.0 | 1.0 | 0.00 | 0.08 | 0.08 | 91 | 1011.3 |
| 20260904235323 | 75 | 341 | 0.0 | 1.0 | 0.00 | 0.08 | 0.08 | 90 | 1011.7 |
| 20260904234821 | 76 | 341 | 0.0 | 1.0 | 0.00 | 0.08 | 0.08 | 89 | 1012.4 |
| 20260904234327 | 76 | 341 | 0.0 | 1.0 | 0.00 | 0.08 | 0.08 | 88 | 1013.0 |
| 20260904233848 | 76 | 341 | 0.0 | 6.0 | 0.00 | 0.08 | 0.08 | 88 | 1013.7 |
| 20260904233327 | 76 | 341 | 0.0 | 6.0 | 0.00 | 0.08 | 0.08 | 88 | 1014.1 |
| 20260904232854 | 77 | 341 | 0.0 | 3.0 | 0.00 | 0.08 | 0.08 | 88 | 1014.3 |
| 20260904232331 | 77 | 341 | 1.0 | 3.0 | 0.00 | 0.08 | 0.08 | 88 | 1014.4 |
| 20260904231831 | 77 | 341 | 0.0 | 2.0 | 0.00 | 0.08 | 0.08 | 88 | 1014.9 |
| 20260904231328 | 77 | 341 | 0.0 | 6.0 | 0.00 | 0.08 | 0.08 | 88 | 1014.9 |
| 20260904230826 | 77 | 341 | 1.0 | 6.0 | 0.00 | 0.08 | 0.08 | 87 | 1015.0 |
| 20260904230326 | 77 | 341 | 0.0 | 3.0 | 0.00 | 0.08 | 0.08 | 87 | 1014.6 |
| 20260904225826 | 78 | 341 | 1.0 | 3.0 | 0.00 | 0.08 | 0.08 | 87 | 1014.2 |
| 20260904225324 | 78 | 341 | 0.0 | 9.0 | 0.00 | 0.08 | 0.08 | 86 | 1014.2 |
| 20260904224829 | 78 | 341 | 1.0 | 9.0 | 0.00 | 0.08 | 0.08 | 85 | 1014.4 |
| 20260904224322 | 79 | 341 | 2.0 | 9.0 | 0.00 | 0.08 | 0.08 | 86 | 1014.5 |
| 20260904223821 | 79 | 341 | 0.0 | 2.0 | 0.03 | 0.08 | 0.08 | 88 | 1013.4 |
| 20260904223320 | 79 | 341 | 0.0 | 2.0 | 0.08 | 0.08 | 0.08 | 88 | 1013.1 |
| 20260904222818 | 78 | 341 | 0.0 | 2.0 | 0.08 | 0.08 | 0.08 | 89 | 1013.0 |